Location: Godzisko
(49.9648°N, 19.4576°E)
Time: 08:04:27
(UTC+00:00)

Meteor 1-23 Rocket - Pass Details

Date: 20 April 2021
Orbit: 839 x 887 km, 81.3° (Epoch: 06 May)

Event Time Altitude Azimuth Distance (km) Brightness Sun altitude
Exits shadow 02:04:00 - 186° (S) 2,610 6.3 -14.2°
Reaches altitude 10° 02:04:18 10° 186° (S) 2,492 6.2 -14.2°
Maximum altitude 02:09:58 81° 100° (E) 886 4.4 -13.5°
Drops below altitude 10° 02:15:46 10° 14° (NNE) 2,542 7.5 -12.7°
Sets 02:18:14 0° 13° (NNE) 3,491 8.2 -12.4°
